[[{"header":{"parameterUnit":"m.s-1","parameterCategory":1,"la1":30.2991,"la2":30.254,"lo1":-89.0895,"lo2":-89.0444,"dy":0.0017,"dx":0.0017,"nx":28,"ny":28,"refTime":"2025-08-07T21:00:00:Z","depth":0,"parameterNumber":2,"parameterNumberName":"U-component_of_WINDS"},"data":[0,0,0,0,0,0,0,0,0,0,0,0,0,0,0,0,0,0,0,0,0,0,0,0,0,0,0,0,0,0,0,0,0,0,0,0,0,0,0,0,0,0,0,0,0,0,0,0,0,0,0,0,0,0,0,0,0,0,-3.1349,-3.1349,0,-3.1344,-3.1344,-3.1344,-3.1243,-3.1241,-3.1238,-3.1236,-3.1235,-3.1238,-3.124,0,0,0,0,0,0,0,0,0,0,0,0,0,-3.1279,-3.1281,-3.1349,-3.1349,-3.1349,-3.1344,-3.1344,-3.1344,-3.1244,-3.1241,-3.1238,-3.1235,-3.1235,-3.1237,-3.124,0,0,0,0,0,0,0,0,0,0,0,0,0,-3.1295,-3.1281,-3.1349,-3.1298,-3.1294,-3.1344,-3.1344,-3.1344,-3.1245,-3.1241,-3.1237,-3.1233,-3.1234,-3.1237,-3.1241,-3.134,0,0,-3.1252,-3.1253,0,0,0,0,0,0,0,0,-3.1294,-3.1298,-3.1306,-3.1302,-3.1297,-3.129,-3.1319,-3.1343,-3.1246,-3.1263,-3.1236,-3.1231,-3.1257,-3.1258,-3.1266,-3.134,-3.134,-3.1252,-3.1254,-3.1256,-3.1257,0,0,0,0,0,0,0,-3.1293,-3.1298,-3.1347,-3.1306,-3.1301,-3.1278,-3.1276,-3.1323,-3.1282,-3.1262,-3.1254,-3.1255,-3.1254,-3.1263,-3.1265,-3.134,-3.1252,-3.1255,-3.1257,-3.1259,-3.1498,-3.1502,0,0,0,0,0,0,-3.1299,-3.1297,-3.1347,-3.1347,-3.1286,-3.1282,-3.128,-3.1296,-3.1281,-3.1275,-3.1258,-3.125,-3.1259,-3.1261,-3.1265,-3.1381,-3.1256,-3.1259,-3.1261,-3.1494,-3.1499,-3.1504,0,0,0,0,0,0,-3.1297,-3.1304,-3.1347,-3.132,-3.1324,-3.1288,-3.1307,-3.1298,-3.1307,-3.1279,-3.1271,-3.1274,-3.1256,-3.126,-3.1322,-3.138,-3.1261,-3.1264,-3.1489,-3.1496,-3.1502,-3.1615,0,0,0,0,0,0,-3.1296,-3.1304,-3.134,-3.1322,-3.1326,-3.1403,-3.131,-3.1301,-3.1313,-3.1302,-3.1292,-3.1287,-3.1253,-3.1318,-3.1326,-3.1383,-3.1267,-3.1484,-3.1492,-3.15,-3.1606,-3.1624,-3.164,0,0,0,0,0,-3.1294,-3.1372,-3.1342,-3.1348,-3.1369,-3.1406,-3.1409,-3.1367,-3.1318,-3.1354,-3.1337,-3.1287,-3.1373,-3.1325,-3.1333,-3.1392,-3.148,-3.149,-3.1499,-3.1598,-3.162,-3.1639,0,0,0,0,0,0,-3.1399,-3.1369,-3.1335,-3.1409,-3.1411,-3.1389,-3.1434,-3.1392,-3.1409,-3.1399,-3.1348,-3.1347,-3.1418,-3.1411,-3.1359,-3.1489,-3.1418,-3.143,-3.149,-3.1511,-3.1528,-3.1528,-3.127,0,0,0,0,0,-3.1431,-3.1461,-3.1434,-3.1503,-3.1506,-3.147,-3.1485,-3.1453,-3.1453,-3.1454,-3.144,-3.1444,-3.1472,-3.1492,-3.1516,-3.1605,-3.1602,-3.165,-3.1667,-3.1681,-3.1692,-3.1741,-3.1762,-3.1535,-3.1535,-3.1535,0,0,-3.1497,-3.1484,-3.1507,-3.1524,-3.1521,-3.1557,-3.1471,-3.1512,-3.1538,-3.146,-3.1518,-3.1509,-3.1511,-3.1587,-3.1621,-3.1584,-3.1754,-3.1694,-3.1705,-3.1708,-3.1753,-3.1774,-3.1793,-3.1542,-3.154,-3.1539,0,0,-3.1634,-3.1628,-3.1685,-3.1684,-3.1682,-3.1658,-3.1672,-3.1658,-3.1648,-3.1705,-3.1648,-3.1681,-3.1729,-3.1733,-3.1741,-3.1885,-3.184,-3.1895,-3.1984,-3.2032,-3.205,-3.2065,-3.2117,-3.2137,-3.1906,-3.1906,-3.1906,0,-3.1717,-3.1766,-3.172,-3.1764,-3.1774,-3.1706,-3.1765,-3.1767,-3.1773,-3.1783,-3.1742,-3.1803,-3.1799,-3.1877,-3.1912,-3.1921,-3.1937,-3.1895,-3.2051,-3.2066,-3.208,-3.2129,-3.2149,-3.1912,-3.1912,-3.1911,-3.191,0,-3.1868,-3.1903,-3.195,-3.1957,-3.1973,-3.2024,-3.1988,-3.2011,-3.1979,-3.1961,-3.2022,-3.2015,-3.2037,-3.2054,-3.2023,-3.2128,-3.2106,-3.2059,-3.1986,-3.2109,-3.2154,-3.2172,-3.1922,-3.1919,-3.1918,-3.1916,0,0,-3.2069,-3.2051,-3.2069,-3.2072,-3.2066,-3.2093,-3.2144,-3.2165,-3.2185,-3.2193,-3.2235,-3.228,-3.2237,-3.2247,-3.2217,-3.2259,-3.2375,-3.2207,-3.2206,-3.2239,-3.2492,-3.2527,-3.2549,-3.2346,-3.235,-3.2352,-3.2492,0,-3.2202,-3.2284,-3.2246,-3.2333,-3.2367,-3.2304,-3.2348,-3.2351,-3.2336,-3.2364,-3.2349,-3.2381,-3.2322,-3.2328,-3.2367,-3.2353,-3.2425,-3.2342,-3.2386,-3.2388,-3.2387,-3.2573,-3.2609,-3.2741,-3.251,-3.2513,-3.2515,0,-3.2367,-3.2381,-3.2472,-3.2462,-3.2474,-3.2514,-3.2532,-3.2559,-3.2562,-3.2549,-3.2561,-3.2522,-3.2574,-3.2503,-3.2574,-3.2519,-3.2535,-3.2532,-3.2536,-3.2537,-3.2458,-3.258,-3.2782,-3.2802,-3.2542,-3.254,-3.2538,0,-3.2505,-3.2547,-3.2607,-3.2612,-3.2601,-3.2631,-3.2629,-3.2628,-3.2644,-3.266,-3.267,-3.2694,-3.2706,-3.2726,-3.2696,-3.2647,-3.2772,-3.2698,-3.2764,-3.2765,-3.2792,-3.279,-3.3,-3.2804,-3.2804,-3.2804,-3.2803,0,-3.2657,-3.2715,-3.2669,-3.2706,-3.277,-3.2728,-3.2793,-3.2784,-3.2785,-3.282,-3.2769,-3.2804,-3.2762,-3.2795,-3.2772,-3.2835,-3.2842,-3.2834,-3.2827,-3.2838,-3.2839,-3.2847,-3.2837,-3.2809,-3.2808,-3.2807,-3.2806,0,-3.2821,-3.2792,-3.2853,-3.2839,-3.2837,-3.2885,-3.2874,-3.2909,-3.2892,-3.2939,-3.2947,-3.2921,-3.2957,-3.2929,-3.2964,-3.2949,-3.3033,-3.3014,-3.3031,-3.3026,-3.3093,-3.3087,-3.3314,-3.3342,-3.313,-3.3132,-3.3133,0,-3.2919,-3.2962,-3.2953,-3.2973,-3.2973,-3.3006,-3.3022,-3.2983,-3.3003,-3.3011,-3.3046,-3.3077,-3.3099,-3.316,-3.3146,-3.3173,-3.3154,-3.3232,-3.3157,-3.3168,-3.3155,-3.3153,-3.3158,-3.3246,-3.3249,-3.3251,-3.3252,0,-3.3097,-3.3082,-3.3105,-3.3126,-3.3146,-3.3161,-3.3172,-3.3191,-3.3152,-3.3178,-3.3212,-3.323,-3.3267,-3.3299,-3.3322,-3.3322,-3.3282,-3.3276,-3.3293,-3.3304,-3.3313,-3.3309,-3.3072,-3.3271,-3.3269,-3.3268,-3.3267,-3.3266,-3.3231,-3.3267,-3.3267,-3.3296,-3.33,-3.3312,-3.3344,-3.3332,-3.336,-3.3385,-3.3362,-3.3405,-3.3411,-3.3437,-3.3443,-3.3477,-3.3445,-3.347,-3.3476,-3.3482,-3.3492,-3.3308,-3.3482,-3.3481,-3.3481,-3.348,-3.348,0,-3.3406,-3.3403,-3.3431,-3.3447,-3.3472,-3.3431,-3.3442,-3.3465,-3.3503,-3.3511,-3.3534,-3.3577,-3.3609,-3.3598,-3.3627,-3.3657,-3.364,-3.3666,-3.3663,-3.3664,-3.3518,-3.3501,-3.368,-3.368,-3.368,-3.368,-3.368,-3.368,-3.35,-3.3559,-3.3544,-3.3606,-3.3604,-3.3644,-3.3654,-3.3666,-3.3672,-3.372,-3.3746,-3.3739,-3.374,-3.3769,-3.3798,-3.3794,-3.3808,-3.3841,-3.3831,-3.3694,-3.3674,-3.3655,-3.3639,-3.3844,-3.3844,-3.3974,-3.3975,-3.3976]},{"header":{"parameterUnit":"m.s-1","parameterCategory":1,"la1":30.2991,"la2":30.254,"lo1":-89.0895,"lo2":-89.0444,"dy":0.0017,"dx":0.0017,"nx":28,"ny":28,"refTime":"2025-08-07T21:00:00:Z","depth":0,"parameterNumber":3,"parameterNumberName":"V-component_of_WINDS"},"data":[0,0,0,0,0,0,0,0,0,0,0,0,0,0,0,0,0,0,0,0,0,0,0,0,0,0,0,0,0,0,0,0,0,0,0,0,0,0,0,0,0,0,0,0,0,0,0,0,0,0,0,0,0,0,0,0,0,0,1.2117,1.2118,0,1.214,1.214,1.214,1.2199,1.22,1.2202,1.2203,1.2222,1.2221,1.2221,0,0,0,0,0,0,0,0,0,0,0,0,0,1.2122,1.2122,1.2117,1.2118,1.2118,1.214,1.214,1.214,1.2199,1.2201,1.2202,1.2204,1.2222,1.2221,1.2221,0,0,0,0,0,0,0,0,0,0,0,0,0,1.213,1.2122,1.2117,1.215,1.2153,1.2139,1.214,1.214,1.2199,1.2201,1.2202,1.2204,1.2222,1.2221,1.222,1.2176,0,0,1.2217,1.2217,0,0,0,0,0,0,0,0,1.2129,1.213,1.2145,1.2148,1.2151,1.2169,1.2149,1.2152,1.2198,1.2181,1.2203,1.2205,1.2202,1.2203,1.2203,1.2177,1.2177,1.2217,1.2217,1.2216,1.2216,0,0,0,0,0,0,0,1.2129,1.2129,1.2126,1.2145,1.2149,1.2162,1.2166,1.215,1.2181,1.2183,1.2187,1.2189,1.2204,1.2204,1.2204,1.2178,1.2217,1.2216,1.2216,1.2215,1.2115,1.2113,0,0,0,0,0,0,1.2124,1.2128,1.2125,1.2127,1.2145,1.2161,1.2164,1.2161,1.2181,1.2186,1.2188,1.2192,1.2205,1.2205,1.2205,1.2153,1.2216,1.2215,1.2215,1.2117,1.2114,1.2112,0,0,0,0,0,0,1.2124,1.2123,1.2124,1.2129,1.213,1.2159,1.2154,1.216,1.216,1.2185,1.219,1.2181,1.2206,1.2206,1.2183,1.2155,1.2215,1.2214,1.2119,1.2116,1.2113,1.205,0,0,0,0,0,0,1.2124,1.2123,1.2107,1.2128,1.2129,1.2103,1.2153,1.216,1.2158,1.2164,1.218,1.2185,1.2208,1.2184,1.2182,1.2154,1.2213,1.2122,1.2118,1.2114,1.2054,1.2045,1.2037,0,0,0,0,0,1.2124,1.2088,1.2106,1.2105,1.211,1.2101,1.2102,1.213,1.2156,1.214,1.2156,1.2184,1.2158,1.2181,1.2179,1.2151,1.2124,1.2119,1.2115,1.2058,1.2047,1.2037,0,0,0,0,0,0,1.2061,1.2091,1.2112,1.2081,1.2088,1.2111,1.2091,1.2117,1.2116,1.2121,1.2155,1.2158,1.2129,1.2138,1.2163,1.2108,1.2146,1.214,1.2104,1.2093,1.2084,1.2082,1.2212,0,0,0,0,0,1.2044,1.2035,1.2061,1.2032,1.2035,1.2062,1.2059,1.208,1.2089,1.2092,1.2106,1.2112,1.2105,1.2099,1.2095,1.2056,1.206,1.2036,1.2027,1.202,1.2014,1.1994,1.1983,1.2097,1.2097,1.2097,0,0,1.2008,1.2023,1.2015,1.202,1.2028,1.2017,1.2064,1.2051,1.2042,1.2089,1.2068,1.2078,1.2087,1.2056,1.2043,1.2062,1.1984,1.2014,1.2008,1.2006,1.1988,1.1977,1.1967,1.2094,1.2095,1.2095,0,0,1.1937,1.1948,1.1925,1.1932,1.1944,1.1963,1.1957,1.1976,1.1985,1.1965,1.1999,1.1989,1.1977,1.1982,1.1982,1.1913,1.1939,1.191,1.1863,1.1843,1.1834,1.1826,1.18,1.179,1.1905,1.1905,1.1905,0,1.189,1.1876,1.1909,1.1893,1.1893,1.1937,1.1912,1.1917,1.1926,1.1925,1.1947,1.1932,1.1941,1.1911,1.1894,1.1894,1.1887,1.1908,1.1833,1.1825,1.1818,1.1794,1.1784,1.1901,1.1902,1.1902,1.1902,0,1.1818,1.1808,1.1787,1.1796,1.1794,1.1774,1.1802,1.1796,1.1817,1.1833,1.1811,1.1824,1.1822,1.1816,1.1837,1.1789,1.18,1.1827,1.1865,1.1803,1.1781,1.1772,1.1896,1.1897,1.1898,1.1899,0,0,1.1707,1.1735,1.1727,1.1731,1.1748,1.1739,1.1721,1.172,1.1714,1.1719,1.1703,1.1692,1.1716,1.1717,1.1738,1.172,1.1663,1.1749,1.175,1.1732,1.161,1.1589,1.1577,1.1681,1.1679,1.1678,1.1609,0,1.1639,1.161,1.1639,1.1604,1.1594,1.1635,1.1618,1.1626,1.164,1.1633,1.1648,1.164,1.1674,1.1674,1.1658,1.1673,1.1639,1.1679,1.1665,1.1664,1.1661,1.1566,1.1544,1.1478,1.16,1.1599,1.1598,0,1.1556,1.1558,1.1522,1.1541,1.1537,1.1522,1.1524,1.1517,1.1526,1.1537,1.1538,1.1564,1.1546,1.1584,1.1559,1.1585,1.1581,1.1588,1.1586,1.1585,1.1626,1.1561,1.1457,1.1447,1.1584,1.1585,1.1586,0,1.1478,1.1471,1.1449,1.1451,1.1473,1.1461,1.1469,1.148,1.1478,1.1478,1.1477,1.1475,1.1474,1.1471,1.1496,1.1521,1.1466,1.1507,1.1474,1.1473,1.146,1.146,1.1353,1.1459,1.1459,1.1459,1.1459,0,1.1398,1.1374,1.1414,1.14,1.1374,1.1406,1.1379,1.1391,1.1401,1.1389,1.1424,1.1412,1.1446,1.1436,1.1455,1.1431,1.143,1.1438,1.1443,1.1434,1.1433,1.1431,1.1436,1.1457,1.1457,1.1458,1.1458,0,1.1306,1.1332,1.1309,1.1332,1.1337,1.1316,1.1335,1.1322,1.1339,1.1323,1.1321,1.1347,1.1338,1.1363,1.1357,1.137,1.1334,1.1347,1.1331,1.1335,1.13,1.1302,1.1187,1.1173,1.1289,1.1288,1.1287,0,1.1253,1.1235,1.1256,1.1251,1.1257,1.1249,1.1247,1.1279,1.1275,1.1284,1.1269,1.1263,1.126,1.1244,1.1261,1.1257,1.127,1.1229,1.1269,1.126,1.1267,1.1268,1.1265,1.1221,1.1219,1.1218,1.1217,0,1.1155,1.1169,1.1166,1.1166,1.1163,1.1165,1.1169,1.1162,1.1196,1.1189,1.1181,1.1179,1.1174,1.1167,1.1167,1.1174,1.12,1.1205,1.1197,1.1187,1.1178,1.1181,1.1307,1.1207,1.1208,1.1209,1.1209,1.121,1.108,1.1067,1.1079,1.1073,1.108,1.1083,1.1072,1.1088,1.1082,1.1081,1.11,1.1087,1.1096,1.1099,1.1103,1.1093,1.1111,1.1099,1.1096,1.1093,1.1086,1.118,1.1093,1.1093,1.1093,1.1094,1.1094,0,1.0984,1.0994,1.0989,1.0994,1.0989,1.1017,1.1022,1.1016,1.1005,1.1012,1.1008,1.0998,1.0992,1.1009,1.1005,1.0993,1.1005,1.0991,1.0991,1.0992,1.1071,1.1078,1.0981,1.0981,1.0981,1.0981,1.0981,1.0981,1.0934,1.0911,1.0926,1.0907,1.0917,1.0906,1.0907,1.0909,1.0915,1.0903,1.0898,1.091,1.092,1.0917,1.0912,1.0917,1.0913,1.0894,1.0903,1.0976,1.0987,1.0997,1.1004,1.0893,1.0893,1.0825,1.0825,1.0824]}]]